User: anonymous
Location: Belfast
(54.5830°N, 5.9330°W)
Time: 03:12:06
(UTC+01:00)
Language:

Coronas F rocket - Orbit

View from above orbital plane
View from above orbital plane
View from above satellite
View from above satellite

Ground track
Ground track

The orbit data is extracted from the following two-line orbital elements,

1 26874U 01032B   14263.81096652  .00016326  00000-0  24944-3 0  7998
2 26874 082.4699 242.9862 0016526 069.1114 291.1906 15.54098685736142
Epoch (UTC): 20 September 2014 19:27:47
Eccentricity: 0.0016526
inclination: 82.4699°
perigee height: 393 km
apogee height: 416 km
right ascension of ascending node: 242.9862°
argument of perigee: 69.1114°
revolutions per day: 15.54098685
mean anomaly at epoch: 291.1906°
orbit number at epoch: 73614

The dashed part of the orbit path shows where the satellite is in the earth's shadow,  

DLR